Home   Weather   Eau Claire   Past weeks

Flag for USA Past Weather in Eau Claire, Wisconsin, USA — Yesterday and Last 2 Weeks

Now
38 °F

Sunny.


Feels Like: 31 °F
Forecast: 31 / 53 °F
Wind: 9 mph from East

Location: Eau Claire County Airport

Current Time: Apr 29, 2017 at 8:39:22 am

Latest Report: Apr 29, 2017 at 7:56 am


Visibility: 10 mi

Pressure: 30.31 "Hg

Humidity: 65%

Dew Point: 27 °F

Location of Eau ClaireLocation

Past Weather in Eau Claire — Graph

°F

Eau Claire Temperature Yesterday

Maximum temperature yesterday: 49 °F (at 3:56 pm)
Minimum temperature yesterday: 33 °F (at 12:30 am)
Average temperature yesterday: 40 °F

High & Low Weather Summary for the Past Weeks

 TemperatureHumidityPressure
High73 °F (Apr 25, 12:56 pm)100% (Apr 15, 3:56 am)30.32 "Hg (Apr 15, 3:56 am)
Low31 °F (Apr 22, 6:36 am)22% (Apr 24, 3:56 pm)29.41 "Hg (Apr 26, 7:56 am)
Average49 °F71%29.89 "Hg
* Reported Apr 14 6:56 am — Apr 29 6:56 am, Eau Claire, Weather by CustomWeather, © 2017

Note: Actual official high and low records may vary slightly from our data, if they occured in-between our weather recording intervals... More about our weather records

Advertising

Eau Claire Weather History for the Previous 24 Hours

Scroll right to see more
 ConditionsComfort  
Time TempWeatherWind HumidityBarometerVisibility
6:56 am
Sat, Apr 29
35 °FSunny.5 mph72%30.32 "Hg10 mi
5:56 am32 °FClear.5 mph79%30.27 "Hg10 mi
4:56 am34 °FClear.6 mph73%30.23 "Hg10 mi
3:56 am35 °FClear.8 mph70%30.19 "Hg10 mi
2:56 am36 °FClear.8 mph70%30.18 "Hg10 mi
1:56 am37 °FClear.10 mph76%30.19 "Hg10 mi
12:56 am33 °FClear.3 mph92%30.14 "Hg10 mi
11:56 pm
Fri, Apr 28
34 °FClear.No wind85%30.11 "Hg10 mi
10:56 pm36 °FClear.No wind75%30.10 "Hg10 mi
9:56 pm39 °FClear.No wind70%30.10 "Hg10 mi
8:56 pm44 °FClear.3 mph58%30.06 "Hg10 mi
7:56 pm46 °FSunny.6 mph51%30.01 "Hg10 mi
6:56 pm48 °FSunny.7 mph48%29.98 "Hg10 mi
5:56 pm49 °FSunny.9 mph46%29.95 "Hg10 mi
4:56 pm49 °FPassing clouds.5 mph46%29.94 "Hg10 mi
3:56 pm49 °FScattered clouds.N/A44%29.95 "Hg10 mi
2:56 pm47 °FSunny.5 mph46%29.95 "Hg10 mi
1:56 pm46 °FSunny.5 mph46%29.94 "Hg10 mi
12:56 pm45 °FSunny.No wind45%29.94 "Hg10 mi
11:56 am43 °FSunny.5 mph49%29.95 "Hg10 mi
10:56 am41 °FSunny.7 mph49%29.94 "Hg10 mi
9:56 am40 °FSunny.7 mph51%29.92 "Hg10 mi
8:56 am39 °FPassing clouds.14 mph53%29.89 "Hg10 mi
Weather by CustomWeather, © 2017

See weather overviewHow to use our weather pages